Weather in Paltsevo

Russia / Pskov Oblast     57°15′15″N   28°04′48″E
temp.,
°C
wind,
m/s
gust,
m/s
humid.,
%
clouds,
%
prec.,
mm/h
press.,
hPa
HPBL,
m
17 september, fri
fri1700:00+6e387299 0.0 1020214
03:00+4e3781100 0.0 1019169
06:00+3ene388558 0.0 1019152
09:00+6e47725 0.0 1019319
12:00+11e675374 0.0 10181124
15:00+13e674854 0.0 10181511
18:00+10ene585527 0.0 10191164
21:00+5ene4127084 0.0 1020361
18 september, sat
sat1800:00+4ene4127459 0.0 1022356
03:00+2ne4118279 0.0 1022291
06:00+2ene41281100 0.0 1022311
09:00+5ene5126699 0.0 1023526
12:00+10e71050100 0.0 10221283
15:00+12ene794584 0.0 10211476
18:00+10ene6105483 0.0 10211162
21:00+6ne51271100 0.0 1021377
19 september, sun
sun1900:00+6ne51371100 0.0 1021475
03:00+5ne61379100 0.0 1021511
06:00+4ne61480100 0.0 1020501
09:00+5ne71471100 0.0 1021608
12:00+9ene81257100 0.0 1020946
15:00+10ene81254100 0.0 10201217
18:00+9ene71258100 0.0 10201336
21:00+8ene71259100 0.0 10211190
20 september, mon
mon2000:00+7ne61163100 0.0 10211085
03:00+6ne71265100 0.0 1020909
06:00+6ne71368100 0.0 1020986
09:00+6ne71371100 0.3 10211056
12:00+6ene71374100 0.0 10211022
15:00+8ene61263100 0.1 10201356
18:00+8ene61159100 0.0 10201246
21:00+7ene61167100 0.0 10211070
21 september, tue
tue2100:00+6ne5967100 0.0 1021931
03:00+5ne5884100 0.0 1020686
06:00+5nne5976100 0.0 1019619
09:00+4nne4877100 0.0 1018579
12:00+3nne4896100 0.3 1018480
15:00+3n4898100 1.9 1017469
18:00+3nne4997100 1.2 1016543
21:00+3nne4798100 1.9 1016661